Regional Weather Roundup
Issued by NWS

Home | Current Version | Previous Version | Text Only | Print | Product List | Glossary Off
Versions: 1 2 3 4 5 6 7 8 9 10 11 12 13 14 15 16 17 18 19 20 21 22 23 24 25 26 27 28 29 30 31 32 33 34 35 36 37 38 39 40 41 42 43 44 45 46 47 48 49 50

000
ASUS45 KPSR 230110
RWRAZ

ARIZONA HOURLY REGIONAL WEATHER ROUNDUP
NATIONAL WEATHER SERVICE PHOENIX AZ
600 PM MST SUN OCT 22 2017

NOTE: FAIR INDICATES FEW OR NO CLOUDS BELOW 12,000 FEET WITH NO
SIGNIFICANT WEATHER AND/OR OBSTRUCTIONS TO VISIBILITY.

AZZ001>003-036-230200-
NORTHWEST ARIZONA

CITY           SKY/WX    TMP DP  RH WIND       PRES   REMARKS
BULLHEAD CITY  FAIR      86  32  14 N14       30.10S
KINGMAN        PTCLDY    72  27  18 NE7       30.27S
$$

AZZ004>008-015-016-018-230200-
NORTH CENTRAL ARIZONA

CITY           SKY/WX    TMP DP  RH WIND       PRES   REMARKS
GRAND CANYON   CLEAR     53  16  23 NW3       30.46R
WILLIAMS       PTCLDY    59  23  25 NW6       30.45R
PRESCOTT       PTCLDY    70  25  18 CALM      30.33S
FLAGSTAFF      PTCLDY    56  15  20 CALM      30.47R
PAYSON         PTCLDY    72  12  10 W5        30.34R
PAGE           CLEAR     63  22  20 E3        30.32R
$$

AZZ009>014-017-230200-
NORTHEAST ARIZONA

CITY           SKY/WX    TMP DP  RH WIND       PRES   REMARKS
WINSLOW        PTCLDY    65  17  15 CALM      30.37S
SAINT JOHNS    PTCLDY    58  18  21 NW5       30.38S
WINDOW ROCK    PTCLDY    58  20  22 N5        30.44R
SHOW LOW       PTCLDY    59  16  18 N5        30.44S
$$

AZZ540-542>544-546-548-230200-
GREATER PHOENIX AREA

CITY           SKY/WX    TMP DP  RH WIND       PRES   REMARKS
PHOENIX        PTCLDY    87  24  10 SW7       30.05S
BUCKEYE        CLEAR     84  14   7 W7        30.07S
LUKE AFB       CLEAR     84  30  14 SW6       30.05S
DEER VALLEY    CLEAR     86  13   6 SW6       30.07S
SCOTTSDALE     PTCLDY    87  18   8 CALM      30.09S
MESA-FALCON    CLEAR     84  27  12 SW7       30.08S
MESA-GATEWAY   CLEAR     84  27  12 W6        30.09S
CHANDLER       CLEAR     86  23  10 W6        30.07S
$$

AZZ539-553-230200-
SOUTHWEST MARICOPA COUNTY AND PINAL COUNTY

CITY           SKY/WX    TMP DP  RH WIND       PRES   REMARKS
CASA GRANDE    NOT AVBL
$$

AZZ503-504-507>509-230200-
SOUTHEAST ARIZONA

CITY           SKY/WX    TMP DP  RH WIND       PRES   REMARKS
TUCSON         PTCLDY    83  25  12 NW6       30.15R
DAVIS-MONTHAN  CLEAR     82  24  12 NW8       30.13R
RYAN FIELD     CLEAR     81  23  12 NW8       30.14R
NOGALES        CLEAR     78  25  14 N6        30.20R
SIERRA VISTA   PTCLDY    74  20  13 CALM      30.27S
DOUGLAS        PTCLDY    70  26  19 N9        30.23R
SAFFORD        PTCLDY    76  14   9 W3        30.17S
$$

AZZ532-230200-
SOUTHWEST ARIZONA

CITY           SKY/WX    TMP DP  RH WIND       PRES   REMARKS
YUMA           CLEAR     86  18   8 N7        30.05S
$$

CAZ041-043-047-048-061-525>527-560>570-230200-
SOUTHERN CALIFORNIA

CITY           SKY/WX    TMP DP  RH WIND       PRES   REMARKS
DOWNTOWN L.A.  CLEAR     84  30  14 CALM      30.03F
L.A. AIRPORT   PTCLDY    71  59  65 W13       30.05S
SAN DIEGO      PTCLDY    82  37  20 NW8       30.04S
BURBANK        CLEAR     87  30  13 S5        30.06R
ONTARIO        CLEAR     90  25   9 NW3       30.07S
RIVERSIDE      CLEAR     89  28  11 VRB7      30.07S
PALM SPRINGS   CLEAR     90  24   9 SE3       30.10R
EL CENTRO NAS  CLEAR     86  19   8 W5        30.07F
IMPERIAL       PTCLDY    85  29  13 SW3       30.05F
BLYTHE         CLEAR     86  17   8 N5        30.08S
NEEDLES        CLEAR     87  31  13 N7        30.12S
$$

NVZ020-UTZ003-230200-
SOUTHERN NEVADA-UTAH

CITY           SKY/WX    TMP DP  RH WIND       PRES   REMARKS
LAS VEGAS      CLEAR     80  27  14 N5        30.22S
SALT LAKE CITY MOCLDY    64  29  26 SW3       30.32S
$$

NMZ009-TXZ055-230200-
NEW MEXICO-WEST TEXAS

CITY           SKY/WX    TMP DP  RH WIND       PRES   REMARKS
ALBUQUERQUE    PTCLDY    66  25  21 N8        30.34R
EL PASO        CLEAR     73  14  10 W3        30.24R
$$


........................KEY........................
SKY/WX - SKY CONDITION/WEATHER
TMP    - TEMPERATURE IN FAHRENHEIT
DP     - DEW POINT IN FAHRENHEIT
RH     - RELATIVE HUMIDITY IN PERCENT
WIND   - DIRECTION AND SPEED IN MILES PER HOUR (MPH)
VRB    - VARIABLE WIND DIRECTION
PRES   - MEAN SEA LEVEL PRESSURE IN INCHES OF MERCURY
         F - FALLING PRESSURE   R - RISING PRESSURE
         S - STEADY PRESSURE
VSB    - VISIBILITY IN MILES
HX     - HEAT INDEX IN FAHRENHEIT
WCI    - WIND CHILL INDEX IN FAHRENHEIT
TC     - TEMPERATURE IN CELSIUS WHICH IS ALSO KNOWN AS
         TEMPERATURE IN CENTIGRADE
AFB    - AIR FORCE BASE
         LUKE AFB IS LUKE AIR FORCE BASE
         DAVIS-MONTHAN IS DAVIS-MONTHAN AIR FORCE BASE
NAS    - NAVAL AIR STATION
         EL CENTRO NAS IS EL CENTRO NAVAL AIR STATION
N/A    - NOT AVAILABLE




USA.gov is the U.S. government's official web portal to all federal, state and local government web resources and services.